{"data":{"norad_id":65360,"intl_designator":"2025-190K","name":"STARLINK-34826","alt_names":[],"object_type":"PAYLOAD","status":"ACTIVE","operator":null,"country":"US","launch_date":"2025-08-28","launch_site_code":"AFETR","launch_vehicle":null,"mission":null,"orbit_class":"UNKNOWN","rcs_meters":null,"size_class":null,"mass_kg":null,"dimensions":null,"purposes":["comms"],"wikipedia_slug":null,"has_3d_model":false,"image_url":null,"decayed_at":null,"tle_current":{"epoch":"2026-09-20T13:18:11.978784Z","epoch_age_seconds":112783,"freshness":"FRESH","line1":"1 65360U 25190K   26263.55430531  .00020492  00000+0  61577-3 0  9997","line2":"2 65360  53.1599 339.2387 0001022  90.6573 269.4547 15.34410933 59176","mean_motion":15.34410933,"eccentricity":0.0001022,"inclination_deg":53.1599,"raan_deg":339.2387,"arg_perigee_deg":90.6573,"mean_anomaly_deg":269.4547,"bstar":0.00061577,"rev_number":5917,"period_min":93.847089396358,"perigee_km":461.97161466846,"apogee_km":463.36987577159,"semimajor_km":6840.80774522,"source":"CELESTRAK","updated_at":"2026-09-21T09:00:35.576805Z"}}}